Location: Paderno d�Adda
(45.6667°N, 9.4333°E)
Time: 16:51:09
(UTC+00:00)

CZ-4 R/B - Pass Details

Date: 19 September 2020
Orbit: 530 x 600 km, 97.7° (Epoch: 20 October)

Event Time Altitude Azimuth Distance (km) Brightness Sun altitude
Rises 18:44:11 0° 197° (SSW) 2,835 5.0 -14.4°
Reaches altitude 10° 18:46:41 10° 211° (SSW) 1,938 4.3 -14.9°
Maximum altitude 18:50:07 24° 266° (W) 1,257 3.9 -15.4°
Drops below altitude 10° 18:53:34 10° 321° (NW) 1,941 5.0 -16.0°
Sets 18:56:05 0° 335° (NNW) 2,841 5.6 -16.4°
